Simultaneous Nadir Overpasses (SNOs) Predictions

Prediction of SNOs between GOES-16 and FY3D Satellite Orbit:

Table of predicted SNOs for the next 14.0 days since TLE Epoch: 9/28/2024
Index Date Time (GOES-16) GOES-16 Lat,Lon FY3D Lat,Lon Distance(km) Time Diff (sec)
1 09/28/2024 07:54:27 0.04, -75.20 0.85, -78.76 406.27 80
2 09/29/2024 07:38:29 0.04, -75.20 -0.21, -74.25 109.84 80
3 09/30/2024 19:57:56 -0.03, -75.23 -0.99, -79.55 492.85 80
4 10/01/2024 19:41:57 -0.03, -75.24 0.02, -75.03 23.94 80
5 10/04/2024 07:43:16 0.03, -75.26 0.13, -75.78 58.93 40
6 10/05/2024 07:26:37 0.04, -75.27 -0.88, -71.26 458.22 80
7 10/06/2024 19:46:03 -0.03, -75.31 -0.33, -76.56 143.20 80
8 10/07/2024 19:30:04 -0.04, -75.32 0.70, -72.04 374.12 80
9 10/09/2024 07:49:21 0.03, -75.33 0.50, -77.30 225.22 80
10 10/10/2024 07:30:42 0.03, -75.35 -0.53, -72.78 292.12 80
11 10/11/2024 19:52:47 -0.02, -75.38 -0.65, -78.09 308.96 80
